Regional Weather Roundup
Issued by NWS

Home | Current Version | Previous Version | Text Only | Print | Product List | Glossary Off
Versions: 1 2 3 4 5 6 7 8 9 10 11 12 13 14 15 16 17 18 19 20 21 22 23 24 25 26 27 28 29 30 31 32 33 34 35 36 37 38 39 40 41 42 43 44 45 46 47 48 49 50

676
ASUS43 KFSD 241710
RWRSD

WEATHER ROUNDUP FOR SOUTH DAKOTA
NATIONAL WEATHER SERVICE SIOUX FALLS SD
1200 PM CDT MON APR 24 2017

NOTE: "FAIR" INDICATES FEW OR NO CLOUDS BELOW 12,000 FEET WITH NO
SIGNIFICANT WEATHER AND/OR OBSTRUCTIONS TO VISIBILITY.


SDZ001>005-009-010-012>017-241800-
NORTHWEST AND NORTH CENTRAL SOUTH DAKOTA

CITY           SKY/WX    TMP DP  RH WIND       PRES   REMARKS
BUFFALO          N/A     47  41  80 NW14      29.56S
FAITH            N/A     40  36  86 NW15      29.61S
MOBRIDGE       CLOUDY    40  34  79 N21       29.57R
$$

SDZ012>016-024>037-041>051-057-063-072>074-241800-
SOUTHWEST AND SOUTH CENTRAL SOUTH DAKOTA

CITY           SKY/WX    TMP DP  RH WIND       PRES   REMARKS
RAPID CTY ARPT PTSUNNY   54  43  66 N17       29.62S
PIERRE         CLOUDY    40  36  86 NW18      29.58R
CUSTER         MOSUNNY   54  27  35 W12G20    29.62S
ELLSWORTH AFB  MOSUNNY   53  44  71 N21       29.60
PHILIP         CLOUDY    46  37  71 NW17      29.62R
PINE RIDGE     MOSUNNY   53  42  66 CALM      29.64F
SPEARFISH      CLOUDY    48  43  81 NW16      29.64S
WINNER         CLOUDY    48  39  71 NW20      29.59R
$$

SDZ004>011-016>023-039-040-241800-
NORTHEAST SOUTH DAKOTA

CITY           SKY/WX    TMP DP  RH WIND       PRES   REMARKS
ABERDEEN       CLOUDY    50  38  63 N12       29.52F
WATERTOWN      NOT AVBL
BROOKINGS      CLOUDY    58  38  47 S25G35    29.55F
SISSETON         N/A     64  41  42 SW14      29.51S
$$

SDZ017-020-022-023-036>040-048>070-241800-
SOUTHEAST SOUTH DAKOTA

CITY           SKY/WX    TMP DP  RH WIND       PRES   REMARKS
SIOUX FALLS    LGT RAIN  56  40  55 S13G18    29.58S
HURON          CLOUDY    62  41  46 S13       29.49F
CHAMBERLAIN    CLOUDY    49  40  73 W16G26    29.57R
MITCHELL       CLOUDY    61  40  45 SW16      29.54S
YANKTON        CLOUDY    55  39  54 SW14G28   29.55F
$$

ABBREVIATIONS USED IN REMARKS
   TC - TEMPERATURE IN CELSIUS
  WCI - WIND CHILL INDEX
   HX - HEAT INDEX
  VSB - VISIBILITY





USA.gov is the U.S. government's official web portal to all federal, state and local government web resources and services.